TimeMST,TemperatureF,Dew PointF,Humidity,Sea Level PressureIn,VisibilityMPH,Wind Direction,Wind SpeedMPH,Gust SpeedMPH,PrecipitationIn,Events,Conditions,WindDirDegrees,DateUTC
12:53 AM,27.0,21.0,78,30.01,10.0,East,4.6,-,N/A,,Clear,80,2012-12-05 07:53:00
1:53 AM,27.0,21.0,78,29.99,10.0,Calm,Calm,-,N/A,,Partly Cloudy,0,2012-12-05 08:53:00
2:53 AM,27.0,21.9,81,29.98,10.0,SW,4.6,-,N/A,,Clear,220,2012-12-05 09:53:00
3:53 AM,27.0,23.0,85,29.97,10.0,East,3.5,-,N/A,,Clear,90,2012-12-05 10:53:00
4:53 AM,27.0,21.9,81,29.97,10.0,SE,6.9,-,N/A,,Clear,140,2012-12-05 11:53:00
5:53 AM,27.0,21.0,78,29.99,10.0,SSW,5.8,-,N/A,,Clear,210,2012-12-05 12:53:00
7:53 AM,27.0,23.0,85,29.96,10.0,NNW,4.6,-,N/A,,Clear,340,2012-12-05 14:53:00
8:53 AM,28.9,24.1,82,29.94,10.0,Calm,Calm,-,N/A,,Clear,0,2012-12-05 15:53:00
9:53 AM,33.1,25.0,72,29.93,10.0,Calm,Calm,-,N/A,,Clear,0,2012-12-05 16:53:00
10:53 AM,37.0,28.0,70,29.90,10.0,Calm,Calm,-,N/A,,Clear,0,2012-12-05 17:53:00
11:53 AM,43.0,28.0,56,29.85,10.0,Calm,Calm,-,N/A,,Clear,0,2012-12-05 18:53:00
12:53 PM,48.0,28.9,48,29.81,10.0,Calm,Calm,-,N/A,,Clear,0,2012-12-05 19:53:00
1:53 PM,50.0,30.0,46,29.80,10.0,Calm,Calm,-,N/A,,Mostly Cloudy,0,2012-12-05 20:53:00
2:53 PM,50.0,30.0,46,29.80,10.0,WNW,5.8,-,N/A,,Partly Cloudy,300,2012-12-05 21:53:00
3:53 PM,46.0,30.9,56,29.81,10.0,Calm,Calm,-,N/A,,Clear,0,2012-12-05 22:53:00
4:53 PM,41.0,30.0,65,29.86,10.0,South,5.8,-,N/A,,Clear,190,2012-12-05 23:53:00
5:53 PM,36.0,28.0,73,29.90,10.0,WSW,4.6,-,N/A,,Clear,240,2012-12-06 00:53:00
6:53 PM,34.0,28.0,79,29.92,10.0,East,5.8,-,N/A,,Clear,90,2012-12-06 01:53:00
7:53 PM,34.0,28.0,79,29.93,10.0,SE,3.5,-,N/A,,Clear,130,2012-12-06 02:53:00
8:53 PM,34.0,28.0,79,29.95,10.0,South,6.9,-,N/A,,Clear,170,2012-12-06 03:53:00
9:53 PM,34.0,28.0,79,29.94,10.0,West,8.1,-,N/A,,Clear,280,2012-12-06 04:53:00
10:53 PM,34.0,28.0,79,29.95,10.0,West,8.1,-,N/A,,Scattered Clouds,260,2012-12-06 05:53:00
11:53 PM,35.1,28.0,76,29.96,10.0,South,8.1,-,N/A,,Mostly Cloudy,190,2012-12-06 06:53:00